• In Moldova, Republic
  • List of Countries
  • For 7 days
  • Water Temperature
  • Satellite Maps
  • Weather Map
  • Weather Widgets
  • user-avatar
    Login

    Hourly Weather Gold Coast

    Today, 27 June, Tuesday

    Time Temperature Precipitation Wind Pressure Humidity
    00:00 +14°C° 0 mm 2 mps 763 mmHg 87%
    01:00 +14°C° 0 mm 2 mps 763 mmHg 87%
    02:00 +13°C° 0 mm 3 mps 763 mmHg 88%
    03:00 +12°C° 0 mm 3 mps 763 mmHg 90%
    04:00 +12°C° 0 mm 4 mps 763 mmHg 91%
    05:00 +12°C° 0 mm 4 mps 763 mmHg 92%
    06:00 +12°C° 0 mm 3 mps 764 mmHg 94%
    07:00 +12°C° 0 mm 3 mps 764 mmHg 95%
    08:00 +14°C° 0 mm 3 mps 764 mmHg 89%
    09:00 +17°C° 0 mm 3 mps 764 mmHg 83%
    10:00 +20°C° 0 mm 4 mps 765 mmHg 76%
    11:00 +20°C° 0.1 mm 4 mps 764 mmHg 74%
    12:00 +21°C° 0.1 mm 3 mps 764 mmHg 71%
    13:00 +21°C° 0.1 mm 3 mps 764 mmHg 68%
    14:00 +21°C° 0 mm 3 mps 764 mmHg 72%
    15:00 +20°C° 0 mm 3 mps 763 mmHg 75%
    16:00 +20°C° 0 mm 3 mps 763 mmHg 78%
    17:00 +18°C° 0 mm 3 mps 763 mmHg 82%
    18:00 +17°C° 0 mm 2 mps 764 mmHg 86%
    19:00 +16°C° 0 mm 2 mps 764 mmHg 90%
    20:00 +16°C° 0 mm 2 mps 764 mmHg 89%
    21:00 +16°C° 0 mm 2 mps 764 mmHg 88%
    22:00 +16°C° 0 mm 2 mps 764 mmHg 87%
    23:00 +16°C° 0 mm 2 mps 764 mmHg 87%

    Tomorrow, 28 June, Wednesday

    Time Temperature Precipitation Wind Pressure Humidity
    00:00 +15°C° 0 mm 2 mps 764 mmHg 88%
    01:00 +15°C° 0 mm 2 mps 764 mmHg 89%
    02:00 +15°C° 0 mm 2 mps 764 mmHg 90%
    03:00 +14°C° 0 mm 2 mps 764 mmHg 91%
    04:00 +14°C° 0 mm 2 mps 763 mmHg 92%
    05:00 +14°C° 0 mm 2 mps 763 mmHg 92%
    06:00 +14°C° 0 mm 2 mps 764 mmHg 92%
    07:00 +14°C° 0 mm 2 mps 764 mmHg 92%
    08:00 +16°C° 0 mm 2 mps 764 mmHg 86%
    09:00 +19°C° 0 mm 2 mps 764 mmHg 79%
    10:00 +21°C° 0 mm 3 mps 764 mmHg 73%
    11:00 +22°C° 0 mm 3 mps 764 mmHg 71%
    12:00 +22°C° 0 mm 4 mps 763 mmHg 69%
    13:00 +23°C° 0 mm 4 mps 763 mmHg 68%
    14:00 +22°C° 0 mm 4 mps 762 mmHg 71%
    15:00 +22°C° 0 mm 4 mps 762 mmHg 74%
    16:00 +21°C° 0 mm 4 mps 762 mmHg 77%
    17:00 +20°C° 0 mm 4 mps 762 mmHg 80%
    18:00 +18°C° 0 mm 4 mps 763 mmHg 84%
    19:00 +17°C° 0 mm 4 mps 763 mmHg 88%
    20:00 +17°C° 0 mm 4 mps 763 mmHg 88%
    21:00 +17°C° 0 mm 4 mps 763 mmHg 89%
    22:00 +15°C° 0 mm 4 mps 764 mmHg 89%
    23:00 +15°C° 0 mm 4 mps 763 mmHg 90%

    Day after tomorrow, 29 June, Thursday

    Time Temperature Precipitation Wind Pressure Humidity
    00:00 +15°C° 0 mm 4 mps 763 mmHg 91%
    01:00 +15°C° 0 mm 4 mps 763 mmHg 91%
    02:00 +14°C° 0 mm 4 mps 762 mmHg 92%
    03:00 +14°C° 0 mm 4 mps 762 mmHg 92%
    04:00 +14°C° 0 mm 4 mps 762 mmHg 92%
    05:00 +14°C° 0 mm 4 mps 762 mmHg 92%
    06:00 +14°C° 0 mm 4 mps 762 mmHg 92%
    07:00 +14°C° 0 mm 4 mps 763 mmHg 92%
    08:00 +17°C° 0 mm 4 mps 763 mmHg 86%
    09:00 +19°C° 0 mm 4 mps 763 mmHg 79%
    10:00 +21°C° 0 mm 4 mps 762 mmHg 73%
    11:00 +21°C° 0 mm 5 mps 762 mmHg 71%
    12:00 +22°C° 0 mm 5 mps 761 mmHg 68%
    13:00 +23°C° 0 mm 5 mps 760 mmHg 65%
    14:00 +23°C° 0 mm 5 mps 759 mmHg 68%
    15:00 +22°C° 0 mm 6 mps 759 mmHg 71%
    16:00 +22°C° 0 mm 6 mps 759 mmHg 74%
    17:00 +21°C° 0 mm 6 mps 759 mmHg 79%
    18:00 +20°C° 0 mm 6 mps 759 mmHg 85%
    19:00 +17°C° 0 mm 6 mps 760 mmHg 90%
    20:00 +17°C° 0.3 mm 6 mps 760 mmHg 90%
    21:00 +17°C° 0.3 mm 5 mps 760 mmHg 91%
    22:00 +17°C° 0.3 mm 5 mps 760 mmHg 91%
    23:00 +17°C° 0.8 mm 5 mps 760 mmHg 92%

    30 June, Friday

    Time Temperature Precipitation Wind Pressure Humidity
    00:00 +17°C° 0.8 mm 5 mps 760 mmHg 93%
    01:00 +16°C° 0.8 mm 5 mps 760 mmHg 94%
    02:00 +16°C° 1 mm 5 mps 760 mmHg 95%
    03:00 +16°C° 1 mm 5 mps 760 mmHg 95%
    04:00 +17°C° 1 mm 4 mps 760 mmHg 96%
    05:00 +16°C° 2.2 mm 5 mps 760 mmHg 96%
    06:00 +16°C° 2.2 mm 5 mps 761 mmHg 96%
    07:00 +15°C° 2.2 mm 6 mps 761 mmHg 96%
    08:00 +15°C° 1.6 mm 6 mps 762 mmHg 95%
    09:00 +15°C° 1.6 mm 7 mps 762 mmHg 94%
    10:00 +15°C° 1.6 mm 7 mps 762 mmHg 94%
    11:00 +14°C° 0.5 mm 7 mps 762 mmHg 92%
    12:00 +13°C° 0.5 mm 8 mps 762 mmHg 90%
    13:00 +13°C° 0.5 mm 8 mps 762 mmHg 88%
    14:00 +12°C° 0.1 mm 8 mps 762 mmHg 88%
    15:00 +12°C° 0.1 mm 8 mps 762 mmHg 87%
    16:00 +12°C° 0.1 mm 8 mps 762 mmHg 87%
    17:00 +12°C° 0.2 mm 8 mps 763 mmHg 86%
    18:00 +12°C° 0.2 mm 8 mps 763 mmHg 86%
    19:00 +12°C° 0.2 mm 8 mps 764 mmHg 85%
    20:00 +12°C° 0.2 mm 9 mps 764 mmHg 84%
    21:00 +12°C° 0.2 mm 9 mps 765 mmHg 83%
    22:00 +11°C° 0.2 mm 9 mps 765 mmHg 82%
    23:00 +11°C° 0 mm 9 mps 765 mmHg 81%

    1 July, Saturday

    Time Temperature Precipitation Wind Pressure Humidity
    00:00 +10°C° 0 mm 9 mps 765 mmHg 81%
    01:00 +10°C° 0 mm 9 mps 765 mmHg 81%
    02:00 +8°C° 0 mm 9 mps 765 mmHg 81%
    03:00 +8°C° 0 mm 9 mps 765 mmHg 82%
    04:00 +9°C° 0 mm 8 mps 765 mmHg 82%
    05:00 +7°C° 0 mm 8 mps 766 mmHg 84%
    06:00 +7°C° 0 mm 8 mps 766 mmHg 85%
    07:00 +8°C° 0 mm 7 mps 766 mmHg 86%
    08:00 +10°C° 0 mm 7 mps 767 mmHg 83%
    09:00 +11°C° 0 mm 7 mps 767 mmHg 79%
    10:00 +14°C° 0 mm 7 mps 767 mmHg 75%
    11:00 +15°C° 0.1 mm 7 mps 766 mmHg 74%
    12:00 +16°C° 0.1 mm 7 mps 766 mmHg 73%
    13:00 +16°C° 0.1 mm 7 mps 765 mmHg 72%
    14:00 +16°C° 0.1 mm 7 mps 765 mmHg 74%
    15:00 +16°C° 0.1 mm 7 mps 765 mmHg 75%
    16:00 +15°C° 0.1 mm 7 mps 765 mmHg 77%
    17:00 +14°C° 0 mm 7 mps 765 mmHg 81%
    18:00 +13°C° 0 mm 6 mps 766 mmHg 86%
    19:00 +11°C° 0 mm 6 mps 766 mmHg 90%
    20:00 +11°C° 0 mm 6 mps 767 mmHg 90%
    21:00 +11°C° 0 mm 6 mps 767 mmHg 90%
    22:00 +12°C° 0 mm 5 mps 767 mmHg 91%
    23:00 +12°C° 0 mm 5 mps 767 mmHg 90%

    2 July, Sunday

    Time Temperature Precipitation Wind Pressure Humidity
    00:00 +12°C° 0 mm 5 mps 766 mmHg 90%
    01:00 +12°C° 0 mm 5 mps 766 mmHg 90%
    02:00 +12°C° 0 mm 5 mps 766 mmHg 91%
    03:00 +12°C° 0 mm 5 mps 766 mmHg 92%
    04:00 +12°C° 0 mm 5 mps 766 mmHg 93%
    05:00 +12°C° 0 mm 5 mps 766 mmHg 94%
    06:00 +10°C° 0 mm 5 mps 766 mmHg 94%
    07:00 +10°C° 0 mm 5 mps 767 mmHg 95%
    08:00 +13°C° 0 mm 5 mps 767 mmHg 90%
    09:00 +14°C° 0 mm 5 mps 767 mmHg 85%
    10:00 +17°C° 0 mm 4 mps 767 mmHg 79%
    11:00 +17°C° 0.1 mm 4 mps 766 mmHg 77%
    12:00 +18°C° 0.1 mm 4 mps 766 mmHg 75%
    13:00 +19°C° 0.1 mm 4 mps 765 mmHg 74%
    14:00 +18°C° 0.1 mm 4 mps 765 mmHg 76%
    15:00 +18°C° 0.1 mm 4 mps 765 mmHg 79%
    16:00 +17°C° 0.1 mm 4 mps 765 mmHg 82%
    17:00 +15°C° 0 mm 4 mps 765 mmHg 85%
    18:00 +14°C° 0 mm 4 mps 766 mmHg 89%
    19:00 +12°C° 0 mm 4 mps 766 mmHg 92%
    20:00 +12°C° 0 mm 4 mps 766 mmHg 92%
    21:00 +12°C° 0 mm 4 mps 766 mmHg 92%
    22:00 +11°C° 0 mm 4 mps 766 mmHg 92%
    23:00 +11°C° 0 mm 3 mps 766 mmHg 92%
    Show more